Regional Weather Roundup
Issued by NWS

Home | Current Version | Previous Version | Graphics & Text | Print | Product List | Glossary On
Versions: 1 2 3 4 5 6 7 8 9 10 11 12 13 14 15 16 17 18 19 20 21 22 23 24 25 26 27 28 29 30 31 32 33 34 35 36 37 38 39 40 41 42 43 44 45 46 47 48 49 50
000
ASUS43 KMKX 200200
RWRWI

WISCONSIN REGIONAL WEATHER ROUNDUP
NATIONAL WEATHER SERVICE MILWAUKEE/SULLIVAN WI
900 PM CDT SAT APR 19 2014

NOTE: "FAIR" INDICATES FEW OR NO CLOUDS BELOW 12,000 FEET WITH NO
SIGNIFICANT WEATHER AND/OR OBSTRUCTIONS TO VISIBILITY.

WIZ001-002-006>008-014>016-023>028-200300-
NORTHWEST WISCONSIN

CITY           SKY/WX    TMP DP  RH WIND       PRES   REMARKS
SUPERIOR ARPT  CLEAR     32  31  96 CALM      30.03F
ASHLAND        CLOUDY    38  36  92 N5        30.04R WCI  34
HAYWARD        MOCLDY    48  41  76 S3        30.02S
SIREN          MOCLDY    46  40  79 CALM      30.02R
RICE LAKE      CLOUDY    50  44  80 SE9       30.04S
LADYSMITH      DRIZZLE   52  47  81 SE7       30.07R
EAU CLAIRE     NOT AVBL
MENOMONIE      CLOUDY    55  45  69 SE5       30.03S
NEW RICHMOND   CLOUDY    56  46  69 S8        30.00F
OSCEOLA        CLOUDY    57  48  72 S8        30.02R
$$

WIZ003>005-009-010-017-018-200300-
NORTH CENTRAL WISCONSIN

CITY           SKY/WX    TMP DP  RH WIND       PRES   REMARKS
WOODRUFF       RAIN      44  39  82 SE6       30.09R
RHINELANDER    LGT RAIN  47  36  65 SE9       30.12S
EAGLE RIVER    CLOUDY    46  33  62 S5        30.10S
LAND O LAKES   LGT RAIN  45  36  70 S5        30.10S
PHILLIPS       LGT RAIN  49  43  78 S8        30.06R
TOMAHAWK       RAIN      47  40  77 CALM      30.10F
MEDFORD        CLOUDY    56  39  54 E6        30.09S
MERRILL        CLOUDY    54  38  55 CALM      30.12S
$$

WIZ029-030-035-036-043>047-200300-
CENTRAL WISCONSIN

CITY           SKY/WX    TMP DP  RH WIND       PRES   REMARKS
WAUSAU         CLOUDY    56  38  50 E8        30.11R
MOSINEE        NOT AVBL
MARSHFIELD     CLOUDY    59  40  49 S12       30.09S
STEVENS POINT  CLOUDY    56  36  47 SE7       30.14R
WAUPACA        MOCLDY    55  36  47 SE10      30.16S
WAUTOMA        NOT AVBL
WISC RAPIDS    CLOUDY    60  36  40 S7        30.13R
CAMP DOUGLAS   NOT AVBL
$$

WIZ011>013-019>022-031-037>040-048>050-200300-
NORTHEAST WISCONSIN

CITY           SKY/WX    TMP DP  RH WIND       PRES   REMARKS
ANTIGO         CLOUDY    48  36  64 SE9       30.16S
STURGEON BAY   MOCLDY    39  30  70 S12       30.22R WCI  32
GREEN BAY      MOCLDY    46  37  71 S8        30.20R
MANITOWOC      NOT AVBL
APPLETON       MOCLDY    50  32  50 SE12      30.19R
CLINTONVILLE   MOCLDY    50  34  53 SE8       30.16S
OSHKOSH        CLOUDY    50  34  54 S7        30.18R
$$

WIZ032>034-041-042-053>061-200300-
SOUTHWEST WISCONSIN

CITY           SKY/WX    TMP DP  RH WIND       PRES   REMARKS
LA CROSSE      MOCLDY    64  40  41 S9        30.06R
SPARTA         PTCLDY    62  34  34 SE6       30.10S
VIROQUA        MOCLDY    60  37  41 SE9       30.11R
BOSCOBEL       CLOUDY    65  35  33 VRB3      30.12R
PRAIRIE DU CHI CLOUDY    64  37  36 SE7       30.09S
PLATTEVILLE    FAIR      58  37  45 SE7       30.15R
$$

WIZ056-057-062-063-064-067-068-200300-
SOUTH CENTRAL WISCONSIN

CITY           SKY/WX    TMP DP  RH WIND       PRES   REMARKS
BARABOO/DELLS  MOCLDY    59  34  39 S12       30.14S
LONE ROCK      NOT AVBL
WATERTOWN      CLOUDY    52  39  61 SE8       30.20S
MADISON        CLOUDY    58  36  43 SE6       30.17S
MIDDLETON      FAIR      60  32  34 SE5       30.17S
MONROE         CLOUDY    58  35  41 SE9       30.16S
JANESVILLE     NOT AVBL
$$

WIZ051-052-058>065-066-070>072-200300-
SOUTHEAST WISCONSIN

CITY           SKY/WX    TMP DP  RH WIND       PRES   REMARKS
MILWAUKEE      CLOUDY    46  34  62 SE6       30.25R
WAUKESHA       CLEAR     46  36  66 SE7       30.24R
MILWAUKEE/TIMM CLEAR     46  34  61 CALM      30.24R
RACINE         CLOUDY    46  33  60 S10       30.25S
BURLINGTON     CLOUDY    49  37  61 SW12      30.21S
KENOSHA        MOCLDY    45  34  65 SE9       30.24R
FOND DU LAC    CLOUDY    50  37  61 S16       30.18F
SHEBOYGAN      CLOUDY    42  33  70 S8        30.23S
WEST BEND      CLOUDY    45  32  61 SE3       30.23S
JUNEAU         CLOUDY    53  33  46 SE14      30.21R
$$

LSZ147-162-200300-
LAKE SUPERIOR

STATION/POSITION TIME  TEMP    WIND        PRES    WAVE
                       AIR SEA DIR/SP/G            HT/PER
                 (UTC) (F)     (DEG/KT/KT) (MB)    (FT/S)
DEVILS ISLAND    0100   36        CALM     1017.5F
PORT WING        0140   36      50/  4/  5 1016.9S
SAXON HARBOR     0130          280/  6/ 20 1016.3R
$$

LMZ867-665-643>646-200300-
LAKE MICHIGAN

STATION/POSITION TIME  TEMP    WIND        PRES    WAVE
                       AIR SEA DIR/SP/G            HT/PER
                 (UTC) (F)     (DEG/KT/KT) (MB)    (FT/S)
NORTHPORT PIER   0100   38     150/ 10/ 14 1023.0F
SISTER BAY       0009   41     170/  9/ 11   N/A
KEWAUNEE LAKESHO 0100   38     150/  9/ 10 1024.1F
SHEBOYGAN LAKESH 0100   46     200/  6/  6 1024.7R
PORT WASHINGTON  0100   43     230/  2/  4 1024.4S
MILWAUKEE LAKESH 0100   38     200/  1/  2   N/A
KENOSHA   LAKESH 0100   42     110/  3/  4   N/A
$$

TC  - TEMPERATURE IN CELSIUS
VSB - VISIBILITY IN STATUTE MILES
WCI - WIND CHILL INDEX
HX  - HEAT INDEX




USA.gov is the U.S. government's official web portal to all federal, state and local government web resources and services.